Private Wetterstation Wechselburg
Wetterdaten: Samstag, 04.01.2014
Datum Zeit Temp. +2m Bodentemp. Temp.+5cm Temp. Wind Windchill X Diff Temp. Feuchte +2m Feuchte +5cm Sonnenschein Luftdruck Regen Wind Richtung Richtung Sonnenschein UV Taupunkt Windchill Windben
04.01.2014 00:00 9,1 C 14,1 C 8,0 C 8,6 C 7,6 C 0,0 C 78 % 82 % 0 % 1012,8 hPa 0,0 l/m 7,1 km/h (2 Bft) SW 225 0 min 0,0 UV-I 5,5 C 6,4 C 7,6 km/h (2 Bft)
04.01.2014 00:06 9,0 C 14,1 C 8,0 C 8,6 C 7,7 C 0,0 C 78 % 82 % 0 % 1012,8 hPa 0,0 l/m 6,6 km/h (2 Bft) SW 225 0 min 0,0 UV-I 5,4 C 6,7 C 8,9 km/h (2 Bft)
04.01.2014 00:10 8,9 C 14,1 C 8,1 C 8,5 C 7,6 C 0,0 C 77 % 82 % 0 % 1012,6 hPa 0,0 l/m 6,4 km/h (2 Bft) W-NW 292 0 min 0,0 UV-I 5,1 C 6,6 C 6,8 km/h (2 Bft)
04.01.2014 00:17 9,1 C 14,1 C 8,3 C 8,7 C 7,9 C 0,0 C 78 % 82 % 0 % 1012,6 hPa 0,0 l/m 5,6 km/h (1 Bft) O 90 0 min 0,0 UV-I 5,5 C 7,2 C 5,5 km/h (1 Bft)
04.01.2014 00:18 9,1 C 14,2 C 8,4 C 8,9 C 8,4 C 0,0 C 78 % 82 % 0 % 1012,6 hPa 0,0 l/m 4,7 km/h (1 Bft) S-SO 157 0 min 0,0 UV-I 5,5 C 8,0 C 6,8 km/h (2 Bft)
04.01.2014 00:19 9,1 C 14,2 C 8,4 C 8,9 C 8,4 C 0,0 C 78 % 82 % 0 % 1012,6 hPa 0,0 l/m 4,7 km/h (1 Bft) S-SO 157 0 min 0,0 UV-I 5,5 C 8,0 C 12,4 km/h (3 Bft)
04.01.2014 00:20 9,1 C 14,2 C 8,4 C 8,9 C 8,4 C 0,0 C 78 % 82 % 0 % 1012,6 hPa 0,0 l/m 4,7 km/h (1 Bft) S-SO 157 0 min 0,0 UV-I 5,5 C 8,0 C 6,8 km/h (2 Bft)
04.01.2014 00:21 9,1 C 14,2 C 8,4 C 8,9 C 8,4 C 0,0 C 78 % 82 % 0 % 1012,6 hPa 0,0 l/m 4,7 km/h (1 Bft) S-SO 157 0 min 0,0 UV-I 5,5 C 8,0 C 6,8 km/h (2 Bft)
04.01.2014 00:22 9,2 C 14,2 C 8,5 C 9,0 C 8,6 C 0,0 C 78 % 82 % 0 % 1012,6 hPa 0,0 l/m 4,8 km/h (1 Bft) SO 135 0 min 0,0 UV-I 5,6 C 8,2 C 10,0 km/h (2 Bft)
04.01.2014 00:27 9,2 C 14,2 C 8,4 C 8,9 C 8,4 C 0,0 C 78 % 81 % 0 % 1012,6 hPa 0,0 l/m 4,7 km/h (1 Bft) S 180 0 min 0,0 UV-I 5,6 C 8,0 C 5,5 km/h (1 Bft)
04.01.2014 00:32 9,2 C 14,2 C 8,3 C 8,9 C 8,4 C 0,0 C 78 % 82 % 0 % 1012,6 hPa 0,0 l/m 4,7 km/h (1 Bft) W-SW 247 0 min 0,0 UV-I 5,6 C 8,0 C 5,8 km/h (2 Bft)
04.01.2014 00:37 9,1 C 14,2 C 8,3 C 8,8 C 8,3 C 0,0 C 78 % 82 % 0 % 1012,6 hPa 0,0 l/m 4,2 km/h (1 Bft) NW 315 0 min 0,0 UV-I 5,5 C 8,3 C 7,2 km/h (2 Bft)
04.01.2014 00:42 9,1 C 14,2 C 8,3 C 8,8 C 8,1 C 0,0 C 78 % 82 % 0 % 1012,6 hPa 0,0 l/m 4,5 km/h (1 Bft) NW 315 0 min 0,0 UV-I 5,5 C 8,1 C 4,0 km/h (1 Bft)
04.01.2014 00:47 9,1 C 14,2 C 8,3 C 8,7 C 7,9 C 0,0 C 78 % 82 % 0 % 1012,7 hPa 0,0 l/m 5,1 km/h (1 Bft) NO 45 0 min 0,0 UV-I 5,5 C 7,3 C 5,6 km/h (1 Bft)
04.01.2014 00:52 9,2 C 14,2 C 8,4 C 8,7 C 7,7 C 0,0 C 78 % 82 % 0 % 1012,7 hPa 0,0 l/m 6,3 km/h (2 Bft) S 180 0 min 0,0 UV-I 5,6 C 6,7 C 9,3 km/h (2 Bft)
04.01.2014 00:57 9,2 C 14,2 C 8,4 C 8,7 C 7,8 C 0,0 C 78 % 82 % 0 % 1012,7 hPa 0,0 l/m 6,8 km/h (2 Bft) W-NW 292 0 min 0,0 UV-I 5,6 C 6,7 C 8,5 km/h (2 Bft)
04.01.2014 01:02 9,2 C 14,2 C 8,3 C 8,8 C 8,1 C 0,0 C 78 % 82 % 0 % 1012,7 hPa 0,0 l/m 5,8 km/h (2 Bft) N-NO 22 0 min 0,0 UV-I 5,6 C 7,3 C 5,0 km/h (1 Bft)
04.01.2014 01:07 9,3 C 14,2 C 8,4 C 8,8 C 7,8 C 0,0 C 78 % 82 % 0 % 1013,4 hPa 0,0 l/m 6,1 km/h (2 Bft) N-NO 22 0 min 0,0 UV-I 5,7 C 6,9 C 5,8 km/h (2 Bft)
04.01.2014 01:35 9,1 C 14,2 C 8,1 C 8,5 C 7,4 C 0,0 C 78 % 82 % 0 % 1013,4 hPa 0,0 l/m 7,2 km/h (2 Bft) S-SW 202 0 min 0,0 UV-I 5,5 C 6,1 C 8,5 km/h (2 Bft)
04.01.2014 01:40 9,1 C 14,2 C 8,0 C 8,5 C 7,3 C 0,0 C 78 % 82 % 0 % 1013,4 hPa 0,0 l/m 7,2 km/h (2 Bft) SW 225 0 min 0,0 UV-I 5,5 C 6,0 C 9,8 km/h (2 Bft)
04.01.2014 01:45 9,1 C 14,2 C 8,1 C 8,6 C 7,7 C 0,0 C 78 % 82 % 0 % 1013,4 hPa 0,0 l/m 5,6 km/h (1 Bft) SO 135 0 min 0,0 UV-I 5,5 C 6,9 C 3,9 km/h (1 Bft)
04.01.2014 01:50 9,1 C 14,2 C 8,1 C 8,7 C 7,8 C 0,0 C 78 % 82 % 0 % 1013,7 hPa 0,0 l/m 5,0 km/h (1 Bft) O-SO 112 0 min 0,0 UV-I 5,5 C 7,3 C 7,9 km/h (2 Bft)
04.01.2014 01:55 9,1 C 14,2 C 8,2 C 8,7 C 8,0 C 0,0 C 78 % 82 % 0 % 1013,7 hPa 0,0 l/m 4,7 km/h (1 Bft) W-SW 247 0 min 0,0 UV-I 5,5 C 7,6 C 7,4 km/h (2 Bft)
04.01.2014 02:00 9,1 C 14,2 C 8,3 C 8,7 C 7,9 C 0,0 C 78 % 82 % 0 % 1013,7 hPa 0,0 l/m 5,0 km/h (1 Bft) NO 45 0 min 0,0 UV-I 5,5 C 7,4 C 4,7 km/h (1 Bft)
04.01.2014 02:05 9,1 C 14,2 C 8,3 C 8,7 C 7,9 C 0,0 C 78 % 82 % 0 % 1013,7 hPa 0,0 l/m 5,3 km/h (1 Bft) W 270 0 min 0,0 UV-I 5,5 C 7,3 C 8,2 km/h (2 Bft)
04.01.2014 02:10 9,1 C 14,3 C 8,3 C 8,7 C 7,8 C 0,0 C 78 % 82 % 0 % 1014,2 hPa 0,0 l/m 6,8 km/h (2 Bft) W-SW 247 0 min 0,0 UV-I 5,5 C 6,7 C 4,5 km/h (1 Bft)
04.01.2014 02:15 9,1 C 14,3 C 8,2 C 8,7 C 7,8 C 0,0 C 77 % 81 % 0 % 1014,2 hPa 0,0 l/m 6,6 km/h (2 Bft) W-SW 247 0 min 0,0 UV-I 5,3 C 6,8 C 7,1 km/h (2 Bft)
04.01.2014 02:20 8,0 C 14,5 C 7,4 C 7,6 C 6,7 C 0,0 C 78 % 82 % 0 % 1014,2 hPa 0,0 l/m 6,4 km/h (2 Bft) S-SW 202 0 min 0,0 UV-I 4,4 C 5,6 C 11,4 km/h (2 Bft)
04.01.2014 02:25 7,7 C 14,6 C 7,1 C 7,0 C 5,5 C 0,0 C 79 % 83 % 0 % 1014,2 hPa 0,0 l/m 7,2 km/h (2 Bft) W-SW 247 0 min 0,0 UV-I 4,3 C 3,9 C 13,8 km/h (3 Bft)
04.01.2014 02:30 7,2 C 14,7 C 6,6 C 6,6 C 4,6 C 0,0 C 81 % 83 % 0 % 1014,9 hPa 0,0 l/m 7,7 km/h (2 Bft) W 270 0 min 0,0 UV-I 4,2 C 2,7 C 11,6 km/h (2 Bft)
04.01.2014 02:35 7,1 C 14,6 C 6,4 C 6,1 C 4,2 C 0,0 C 82 % 83 % 0 % 1014,9 hPa 0,0 l/m 7,2 km/h (2 Bft) W-SW 247 0 min 0,0 UV-I 4,2 C 2,4 C 12,6 km/h (3 Bft)
04.01.2014 02:40 6,8 C 14,6 C 6,1 C 5,9 C 4,1 C 0,0 C 82 % 84 % 0 % 1014,9 hPa 0,0 l/m 6,4 km/h (2 Bft) W-SW 247 0 min 0,0 UV-I 3,9 C 2,6 C 5,0 km/h (1 Bft)
04.01.2014 02:45 6,7 C 14,6 C 6,1 C 5,8 C 4,1 C 0,0 C 83 % 84 % 0 % 1014,9 hPa 0,0 l/m 6,4 km/h (2 Bft) W 270 0 min 0,0 UV-I 4,0 C 2,6 C 5,5 km/h (1 Bft)
04.01.2014 02:50 6,5 C 14,6 C 5,6 C 5,9 C 4,7 C 0,0 C 82 % 84 % 0 % 1014,9 hPa 0,0 l/m 4,2 km/h (1 Bft) W-SW 247 0 min 0,0 UV-I 3,7 C 4,7 C 5,5 km/h (1 Bft)
04.01.2014 02:55 6,4 C 14,6 C 5,4 C 5,9 C 4,9 C 0,0 C 83 % 85 % 0 % 1014,9 hPa 0,0 l/m 3,1 km/h (1 Bft) W 270 0 min 0,0 UV-I 3,7 C 4,9 C 3,7 km/h (1 Bft)
04.01.2014 03:00 6,2 C 14,7 C 5,3 C 5,7 C 4,8 C 0,0 C 83 % 85 % 0 % 1014,9 hPa 0,0 l/m 2,4 km/h (1 Bft) W-SW 247 0 min 0,0 UV-I 3,5 C 4,8 C 1,9 km/h (1 Bft)
04.01.2014 03:05 6,1 C 14,7 C 5,2 C 5,6 C 4,7 C 0,0 C 83 % 86 % 0 % 1014,9 hPa 0,0 l/m 2,1 km/h (1 Bft) W-SW 247 0 min 0,0 UV-I 3,4 C 4,7 C 1,9 km/h (1 Bft)
04.01.2014 03:10 6,0 C 14,9 C 4,9 C 5,5 C 4,5 C 0,0 C 83 % 86 % 0 % 1015,0 hPa 0,0 l/m 1,4 km/h (1 Bft) S-SW 202 0 min 0,0 UV-I 3,3 C 4,5 C 0,0 km/h (0 Bft)
04.01.2014 03:15 5,9 C 14,9 C 4,5 C 5,4 C 4,3 C 0,0 C 83 % 86 % 0 % 1015,0 hPa 0,0 l/m 1,0 km/h (0 Bft) SW 225 0 min 0,0 UV-I 3,2 C 4,3 C 0,0 km/h (0 Bft)
04.01.2014 03:20 5,6 C 14,8 C 4,3 C 5,1 C 4,1 C 0,0 C 83 % 86 % 0 % 1015,0 hPa 0,0 l/m 0,5 km/h (0 Bft) S 180 0 min 0,0 UV-I 2,9 C 4,1 C 0,0 km/h (0 Bft)
04.01.2014 03:25 5,5 C 14,9 C 4,1 C 5,0 C 4,1 C 0,0 C 83 % 86 % 0 % 1015,0 hPa 0,0 l/m 0,5 km/h (0 Bft) O 90 0 min 0,0 UV-I 2,8 C 4,1 C 0,0 km/h (0 Bft)
04.01.2014 03:30 5,1 C 14,9 C 3,8 C 4,7 C 3,8 C 0,0 C 84 % 86 % 0 % 1014,9 hPa 0,0 l/m 0,0 km/h (0 Bft) O-SO 112 0 min 0,0 UV-I 2,6 C 3,8 C 0,0 km/h (0 Bft)
04.01.2014 03:35 4,9 C 14,9 C 3,9 C 4,5 C 3,7 C 0,0 C 84 % 86 % 0 % 1014,9 hPa 0,0 l/m 0,0 km/h (0 Bft) N-NW 337 0 min 0,0 UV-I 2,4 C 3,7 C 0,0 km/h (0 Bft)
04.01.2014 03:40 4,8 C 14,9 C 3,7 C 4,4 C 3,6 C 0,0 C 85 % 86 % 0 % 1014,9 hPa 0,0 l/m 0,3 km/h (0 Bft) W 270 0 min 0,0 UV-I 2,5 C 3,6 C 0,0 km/h (0 Bft)
04.01.2014 03:45 4,8 C 14,9 C 3,8 C 4,4 C 3,7 C 0,0 C 85 % 87 % 0 % 1014,9 hPa 0,0 l/m 0,6 km/h (0 Bft) SO 135 0 min 0,0 UV-I 2,5 C 3,7 C 0,0 km/h (0 Bft)
04.01.2014 03:50 4,6 C 14,9 C 3,7 C 4,3 C 3,7 C 0,0 C 85 % 87 % 0 % 1014,9 hPa 0,0 l/m 0,6 km/h (0 Bft) S 180 0 min 0,0 UV-I 2,3 C 3,7 C 3,5 km/h (1 Bft)
04.01.2014 03:55 4,6 C 14,9 C 3,9 C 4,3 C 3,7 C 0,0 C 85 % 87 % 0 % 1014,9 hPa 0,0 l/m 0,3 km/h (0 Bft) N-NW 337 0 min 0,0 UV-I 2,3 C 3,7 C 0,0 km/h (0 Bft)
04.01.2014 04:00 4,5 C 14,9 C 3,9 C 4,2 C 3,6 C 0,0 C 86 % 87 % 0 % 1014,9 hPa 0,0 l/m 0,5 km/h (0 Bft) NW 315 0 min 0,0 UV-I 2,4 C 3,6 C 0,0 km/h (0 Bft)
04.01.2014 04:05 4,3 C 15,0 C 3,6 C 4,0 C 3,3 C 0,0 C 85 % 87 % 0 % 1014,9 hPa 0,0 l/m 0,2 km/h (0 Bft) N-NW 337 0 min 0,0 UV-I 2,0 C 3,3 C 0,0 km/h (0 Bft)
04.01.2014 04:10 4,0 C 15,0 C 3,3 C 3,6 C 2,9 C 0,0 C 85 % 87 % 0 % 1015,1 hPa 0,0 l/m 0,0 km/h (0 Bft) O-NO 67 0 min 0,0 UV-I 1,7 C 2,9 C 0,0 km/h (0 Bft)
04.01.2014 04:15 3,9 C 14,9 C 3,1 C 3,5 C 2,7 C 0,0 C 85 % 87 % 0 % 1015,1 hPa 0,0 l/m 0,0 km/h (0 Bft) S-SW 202 0 min 0,0 UV-I 1,6 C 2,7 C 0,0 km/h (0 Bft)
04.01.2014 04:20 3,7 C 14,9 C 3,1 C 3,3 C 2,6 C 0,0 C 85 % 87 % 0 % 1015,1 hPa 0,0 l/m 0,0 km/h (0 Bft) SO 135 0 min 0,0 UV-I 1,4 C 2,6 C 0,0 km/h (0 Bft)
04.01.2014 04:25 3,7 C 14,9 C 2,8 C 3,3 C 2,6 C 0,0 C 85 % 87 % 0 % 1015,1 hPa 0,0 l/m 0,0 km/h (0 Bft) SO 135 0 min 0,0 UV-I 1,4 C 2,6 C 0,0 km/h (0 Bft)
04.01.2014 04:30 3,5 C 14,9 C 2,9 C 3,3 C 2,8 C 0,0 C 86 % 88 % 0 % 1015,1 hPa 0,0 l/m 0,3 km/h (0 Bft) S 180 0 min 0,0 UV-I 1,4 C 2,8 C 2,4 km/h (1 Bft)
04.01.2014 04:35 3,5 C 14,9 C 3,1 C 3,4 C 3,1 C 0,0 C 86 % 88 % 0 % 1015,1 hPa 0,0 l/m 0,6 km/h (0 Bft) SO 135 0 min 0,0 UV-I 1,4 C 3,1 C 0,0 km/h (0 Bft)
04.01.2014 04:40 3,6 C 14,9 C 3,7 C 3,6 C 3,5 C 0,0 C 87 % 88 % 0 % 1015,1 hPa 0,0 l/m 1,3 km/h (1 Bft) S 180 0 min 0,0 UV-I 1,6 C 3,5 C 3,1 km/h (1 Bft)
04.01.2014 04:45 3,6 C 14,9 C 4,0 C 3,6 C 3,6 C 0,0 C 87 % 88 % 0 % 1015,1 hPa 0,0 l/m 1,1 km/h (1 Bft) W-NW 292 0 min 0,0 UV-I 1,6 C 3,6 C 0,0 km/h (0 Bft)
04.01.2014 04:50 3,6 C 14,7 C 4,3 C 3,7 C 3,7 C 0,1 C 87 % 88 % 0 % 1015,2 hPa 0,0 l/m 1,3 km/h (1 Bft) NW 315 0 min 0,0 UV-I 1,6 C 3,7 C 3,2 km/h (1 Bft)
04.01.2014 04:55 3,9 C 14,6 C 4,5 C 4,1 C 4,1 C 0,2 C 88 % 88 % 0 % 1015,2 hPa 0,0 l/m 2,1 km/h (1 Bft) S 180 0 min 0,0 UV-I 2,1 C 4,1 C 8,4 km/h (2 Bft)
04.01.2014 05:00 4,2 C 14,4 C 4,9 C 4,4 C 4,4 C 0,2 C 88 % 89 % 0 % 1015,2 hPa 0,0 l/m 3,1 km/h (1 Bft) W-SW 247 0 min 0,0 UV-I 2,4 C 4,4 C 3,7 km/h (1 Bft)
04.01.2014 05:05 4,7 C 14,4 C 5,3 C 4,6 C 4,4 C 0,0 C 88 % 89 % 0 % 1015,2 hPa 0,0 l/m 3,7 km/h (1 Bft) W 270 0 min 0,0 UV-I 2,9 C 4,4 C 3,2 km/h (1 Bft)
04.01.2014 05:10 5,2 C 14,4 C 5,7 C 5,0 C 4,7 C 0,0 C 87 % 89 % 0 % 1015,2 hPa 0,0 l/m 4,3 km/h (1 Bft) S-SO 157 0 min 0,0 UV-I 3,2 C 4,7 C 4,2 km/h (1 Bft)
04.01.2014 05:15 5,6 C 14,4 C 5,8 C 5,4 C 4,9 C 0,0 C 86 % 89 % 0 % 1015,2 hPa 0,0 l/m 4,5 km/h (1 Bft) S-SO 157 0 min 0,0 UV-I 3,4 C 4,9 C 8,0 km/h (2 Bft)
04.01.2014 05:20 6,0 C 14,3 C 6,1 C 5,8 C 5,3 C 0,0 C 85 % 89 % 0 % 1015,2 hPa 0,0 l/m 4,5 km/h (1 Bft) O-SO 112 0 min 0,0 UV-I 3,7 C 5,3 C 7,4 km/h (2 Bft)
04.01.2014 05:25 6,4 C 14,3 C 6,3 C 6,1 C 5,4 C 0,0 C 85 % 89 % 0 % 1015,2 hPa 0,0 l/m 5,0 km/h (1 Bft) S-SO 157 0 min 0,0 UV-I 4,1 C 4,5 C 5,1 km/h (1 Bft)
04.01.2014 05:30 6,8 C 14,3 C 6,3 C 6,4 C 5,6 C 0,0 C 83 % 88 % 0 % 1015,5 hPa 0,0 l/m 5,1 km/h (1 Bft) W 270 0 min 0,0 UV-I 4,1 C 4,7 C 4,8 km/h (1 Bft)
04.01.2014 05:35 6,9 C 14,3 C 6,3 C 6,6 C 5,9 C 0,0 C 82 % 87 % 0 % 1015,5 hPa 0,0 l/m 4,7 km/h (1 Bft) SO 135 0 min 0,0 UV-I 4,0 C 5,2 C 2,6 km/h (1 Bft)
04.01.2014 05:40 7,1 C 14,3 C 6,4 C 6,7 C 5,9 C 0,0 C 81 % 87 % 0 % 1015,5 hPa 0,0 l/m 4,5 km/h (1 Bft) O-SO 112 0 min 0,0 UV-I 4,1 C 5,9 C 3,9 km/h (1 Bft)
04.01.2014 05:45 7,0 C 14,3 C 6,5 C 6,7 C 6,0 C 0,0 C 81 % 87 % 0 % 1015,5 hPa 0,0 l/m 4,3 km/h (1 Bft) W-NW 292 0 min 0,0 UV-I 4,0 C 6,0 C 6,4 km/h (2 Bft)
04.01.2014 05:50 7,2 C 14,3 C 6,4 C 6,8 C 6,1 C 0,0 C 80 % 86 % 0 % 1015,6 hPa 0,0 l/m 4,2 km/h (1 Bft) W-NW 292 0 min 0,0 UV-I 4,0 C 6,1 C 8,9 km/h (2 Bft)
04.01.2014 05:55 7,2 C 14,3 C 6,5 C 6,8 C 6,0 C 0,0 C 80 % 86 % 0 % 1015,6 hPa 0,0 l/m 4,3 km/h (1 Bft) S 180 0 min 0,0 UV-I 4,0 C 6,0 C 8,0 km/h (2 Bft)
04.01.2014 06:00 7,2 C 14,3 C 6,5 C 6,8 C 6,0 C 0,0 C 79 % 85 % 0 % 1015,6 hPa 0,0 l/m 4,7 km/h (1 Bft) O-NO 67 0 min 0,0 UV-I 3,8 C 5,3 C 4,3 km/h (1 Bft)
04.01.2014 06:05 7,3 C 14,3 C 6,5 C 6,9 C 6,1 C 0,0 C 79 % 85 % 0 % 1015,6 hPa 0,0 l/m 4,5 km/h (1 Bft) S 180 0 min 0,0 UV-I 3,9 C 6,1 C 9,0 km/h (2 Bft)
04.01.2014 06:10 7,4 C 14,3 C 6,7 C 7,1 C 6,4 C 0,0 C 79 % 85 % 0 % 1015,4 hPa 0,0 l/m 3,7 km/h (1 Bft) W-SW 247 0 min 0,0 UV-I 4,0 C 6,4 C 3,2 km/h (1 Bft)
04.01.2014 06:15 7,5 C 14,3 C 6,7 C 7,1 C 6,4 C 0,0 C 79 % 85 % 0 % 1015,4 hPa 0,0 l/m 3,9 km/h (1 Bft) S-SW 202 0 min 0,0 UV-I 4,1 C 6,4 C 11,6 km/h (2 Bft)
04.01.2014 06:20 7,5 C 14,3 C 6,6 C 7,1 C 6,3 C 0,0 C 79 % 84 % 0 % 1015,4 hPa 0,0 l/m 4,3 km/h (1 Bft) S 180 0 min 0,0 UV-I 4,1 C 6,3 C 5,5 km/h (1 Bft)
04.01.2014 06:25 7,4 C 14,3 C 6,5 C 7,0 C 6,3 C 0,0 C 79 % 84 % 0 % 1015,4 hPa 0,0 l/m 4,2 km/h (1 Bft) W 270 0 min 0,0 UV-I 4,0 C 6,3 C 1,6 km/h (1 Bft)
04.01.2014 06:30 7,5 C 14,3 C 6,6 C 7,2 C 6,6 C 0,0 C 79 % 84 % 0 % 1015,6 hPa 0,0 l/m 3,7 km/h (1 Bft) NW 315 0 min 0,0 UV-I 4,1 C 6,6 C 3,9 km/h (1 Bft)
04.01.2014 06:35 7,4 C 14,3 C 6,5 C 7,2 C 6,7 C 0,0 C 78 % 84 % 0 % 1015,6 hPa 0,0 l/m 3,5 km/h (1 Bft) S-SO 157 0 min 0,0 UV-I 3,8 C 6,7 C 4,8 km/h (1 Bft)
04.01.2014 06:41 7,5 C 14,3 C 6,5 C 7,2 C 6,7 C 0,0 C 78 % 84 % 0 % 1015,6 hPa 0,0 l/m 3,4 km/h (1 Bft) N 0 0 min 0,0 UV-I 3,9 C 6,7 C 2,9 km/h (1 Bft)
04.01.2014 07:00 7,5 C 14,3 C 6,4 C 7,2 C 6,6 C 0,0 C 77 % 83 % 0 % 1015,4 hPa 0,0 l/m 2,7 km/h (1 Bft) SW 225 0 min 0,0 UV-I 3,7 C 6,6 C 4,5 km/h (1 Bft)
04.01.2014 07:05 7,4 C 14,3 C 6,3 C 7,1 C 6,6 C 0,0 C 77 % 83 % 0 % 1015,4 hPa 0,0 l/m 2,9 km/h (1 Bft) S 180 0 min 0,0 UV-I 3,6 C 6,6 C 7,7 km/h (2 Bft)
04.01.2014 07:10 7,5 C 14,3 C 6,3 C 7,2 C 6,6 C 0,0 C 77 % 83 % 0 % 1015,6 hPa 0,0 l/m 3,7 km/h (1 Bft) S-SO 157 0 min 0,0 UV-I 3,7 C 6,6 C 4,3 km/h (1 Bft)
04.01.2014 07:15 7,5 C 14,3 C 6,3 C 7,1 C 6,3 C 0,0 C 77 % 83 % 0 % 1015,6 hPa 0,0 l/m 4,2 km/h (1 Bft) S 180 0 min 0,0 UV-I 3,7 C 6,3 C 4,7 km/h (1 Bft)
04.01.2014 07:20 7,5 C 14,3 C 6,2 C 7,2 C 6,6 C 0,0 C 77 % 83 % 0 % 1015,6 hPa 0,0 l/m 3,7 km/h (1 Bft) W-SW 247 0 min 0,0 UV-I 3,7 C 6,6 C 2,9 km/h (1 Bft)
04.01.2014 07:25 7,5 C 14,3 C 6,0 C 7,2 C 6,5 C 0,0 C 77 % 83 % 0 % 1015,6 hPa 0,0 l/m 2,6 km/h (1 Bft) SW 225 0 min 0,0 UV-I 3,7 C 6,5 C 5,3 km/h (1 Bft)
04.01.2014 07:30 7,4 C 14,3 C 6,0 C 7,1 C 6,5 C 0,0 C 77 % 83 % 0 % 1015,6 hPa 0,0 l/m 2,6 km/h (1 Bft) SW 225 0 min 0,0 UV-I 3,6 C 6,5 C 6,9 km/h (2 Bft)
04.01.2014 07:35 7,3 C 14,3 C 6,0 C 7,0 C 6,5 C 0,0 C 77 % 83 % 0 % 1015,6 hPa 0,0 l/m 3,2 km/h (1 Bft) SW 225 0 min 0,0 UV-I 3,5 C 6,5 C 4,8 km/h (1 Bft)
04.01.2014 07:40 7,3 C 14,3 C 5,9 C 7,0 C 6,3 C 0,0 C 77 % 83 % 0 % 1015,6 hPa 0,0 l/m 2,7 km/h (1 Bft) S 180 0 min 0,0 UV-I 3,5 C 6,3 C 1,6 km/h (1 Bft)
04.01.2014 07:45 7,2 C 14,3 C 5,7 C 6,8 C 6,1 C 0,0 C 77 % 83 % 0 % 1015,6 hPa 0,0 l/m 1,3 km/h (1 Bft) W-SW 247 0 min 0,0 UV-I 3,4 C 6,1 C 0,0 km/h (0 Bft)
04.01.2014 07:50 6,9 C 14,3 C 5,5 C 6,5 C 5,7 C 0,0 C 77 % 82 % 0 % 1015,4 hPa 0,0 l/m 0,0 km/h (0 Bft) S 180 0 min 0,0 UV-I 3,2 C 5,7 C 0,0 km/h (0 Bft)
04.01.2014 07:55 6,7 C 14,3 C 5,1 C 6,3 C 5,5 C 0,0 C 77 % 82 % 0 % 1015,4 hPa 0,0 l/m 0,0 km/h (0 Bft) O-NO 67 0 min 0,0 UV-I 3,0 C 5,5 C 0,0 km/h (0 Bft)
04.01.2014 08:00 6,5 C 14,3 C 4,8 C 6,1 C 5,2 C 0,0 C 78 % 82 % 0 % 1015,4 hPa 0,0 l/m 0,2 km/h (0 Bft) NO 45 0 min 0,0 UV-I 2,9 C 5,2 C 0,0 km/h (0 Bft)
04.01.2014 08:05 6,4 C 14,3 C 4,7 C 6,0 C 5,1 C 0,0 C 78 % 83 % 0 % 1015,4 hPa 0,0 l/m 0,2 km/h (0 Bft) N-NW 337 0 min 0,0 UV-I 2,8 C 5,1 C 0,0 km/h (0 Bft)
04.01.2014 08:10 6,3 C 14,4 C 4,6 C 5,9 C 5,0 C 0,0 C 78 % 83 % 0 % 1015,6 hPa 0,0 l/m 0,0 km/h (0 Bft) N-NO 22 0 min 0,0 UV-I 2,8 C 5,0 C 0,0 km/h (0 Bft)
04.01.2014 08:15 6,1 C 14,4 C 4,4 C 5,7 C 5,0 C 0,0 C 79 % 83 % 0 % 1015,6 hPa 0,0 l/m 0,0 km/h (0 Bft) O-NO 67 0 min 0,0 UV-I 2,7 C 5,0 C 0,0 km/h (0 Bft)
04.01.2014 08:20 6,0 C 14,4 C 4,3 C 5,6 C 4,8 C 0,0 C 79 % 83 % 0 % 1015,6 hPa 0,0 l/m 0,0 km/h (0 Bft) N-NO 22 0 min 0,0 UV-I 2,6 C 4,8 C 0,0 km/h (0 Bft)
04.01.2014 08:25 5,8 C 14,4 C 4,3 C 5,4 C 4,7 C 0,0 C 79 % 83 % 0 % 1015,6 hPa 0,0 l/m 0,0 km/h (0 Bft) NO 45 0 min 0,0 UV-I 2,4 C 4,7 C 0,0 km/h (0 Bft)
04.01.2014 08:30 5,6 C 14,4 C 4,0 C 5,3 C 4,7 C 0,0 C 80 % 83 % 0 % 1015,2 hPa 0,0 l/m 0,0 km/h (0 Bft) O-NO 67 0 min 0,0 UV-I 2,4 C 4,7 C 0,0 km/h (0 Bft)
04.01.2014 08:35 5,7 C 14,4 C 4,0 C 5,4 C 4,7 C 0,0 C 80 % 84 % 0 % 1015,2 hPa 0,0 l/m 0,0 km/h (0 Bft) O-NO 67 0 min 0,0 UV-I 2,5 C 4,7 C 0,0 km/h (0 Bft)
04.01.2014 08:40 5,4 C 14,4 C 3,9 C 5,2 C 4,7 C 0,0 C 80 % 84 % 0 % 1015,2 hPa 0,0 l/m 0,0 km/h (0 Bft) O-NO 67 0 min 0,0 UV-I 2,2 C 4,7 C 0,0 km/h (0 Bft)
04.01.2014 08:45 5,3 C 14,4 C 3,9 C 5,0 C 4,5 C 0,0 C 80 % 84 % 0 % 1015,2 hPa 0,0 l/m 0,0 km/h (0 Bft) O-NO 67 0 min 0,0 UV-I 2,1 C 4,5 C 0,0 km/h (0 Bft)
04.01.2014 08:50 5,2 C 14,5 C 3,9 C 4,8 C 4,1 C 0,0 C 81 % 84 % 0 % 1015,3 hPa 0,0 l/m 0,0 km/h (0 Bft) O-NO 67 0 min 0,0 UV-I 2,2 C 4,1 C 0,0 km/h (0 Bft)
04.01.2014 08:55 5,1 C 14,5 C 3,7 C 4,7 C 4,0 C 0,0 C 81 % 84 % 0 % 1015,3 hPa 0,0 l/m 0,0 km/h (0 Bft) O-NO 67 0 min 0,0 UV-I 2,1 C 4,0 C 0,0 km/h (0 Bft)
04.01.2014 09:00 4,8 C 14,5 C 3,6 C 4,5 C 3,9 C 0,0 C 81 % 84 % 0 % 1015,3 hPa 0,0 l/m 0,0 km/h (0 Bft) O-NO 67 0 min 0,0 UV-I 1,8 C 3,9 C 0,0 km/h (0 Bft)
04.01.2014 09:05 4,8 C 14,5 C 3,6 C 4,5 C 3,8 C 0,0 C 81 % 84 % 0 % 1015,3 hPa 0,0 l/m 0,0 km/h (0 Bft) O-NO 67 0 min 0,0 UV-I 1,8 C 3,8 C 0,0 km/h (0 Bft)
04.01.2014 09:10 4,7 C 14,6 C 3,6 C 4,5 C 4,0 C 0,0 C 82 % 85 % 0 % 1015,1 hPa 0,0 l/m 0,0 km/h (0 Bft) O-NO 67 0 min 0,0 UV-I 1,9 C 4,0 C 0,0 km/h (0 Bft)
04.01.2014 09:15 4,6 C 14,6 C 3,6 C 4,4 C 4,1 C 0,0 C 82 % 85 % 0 % 1015,1 hPa 0,0 l/m 0,0 km/h (0 Bft) O-NO 67 0 min 0,0 UV-I 1,8 C 4,1 C 0,0 km/h (0 Bft)
04.01.2014 09:20 4,5 C 14,6 C 3,6 C 4,4 C 4,3 C 0,0 C 83 % 85 % 0 % 1015,1 hPa 0,0 l/m 0,0 km/h (0 Bft) O-NO 67 0 min 0,0 UV-I 1,9 C 4,3 C 0,0 km/h (0 Bft)
04.01.2014 09:25 4,4 C 14,5 C 3,7 C 4,5 C 4,5 C 0,1 C 83 % 85 % 3 % 1015,1 hPa 0,0 l/m 0,0 km/h (0 Bft) O-NO 67 0 min 0,0 UV-I 1,8 C 4,5 C 0,0 km/h (0 Bft)
04.01.2014 09:30 4,4 C 14,4 C 3,9 C 4,7 C 4,7 C 0,3 C 83 % 85 % 8 % 1015,3 hPa 0,0 l/m 0,0 km/h (0 Bft) O-NO 67 0 min 0,0 UV-I 1,8 C 4,7 C 0,0 km/h (0 Bft)
04.01.2014 09:35 4,4 C 14,4 C 4,0 C 4,8 C 4,8 C 0,4 C 83 % 85 % 11 % 1015,3 hPa 0,0 l/m 0,0 km/h (0 Bft) S-SW 202 0 min 0,0 UV-I 1,8 C 4,8 C 0,0 km/h (0 Bft)
04.01.2014 09:40 4,5 C 14,3 C 4,3 C 5,2 C 5,2 C 0,7 C 83 % 85 % 18 % 1015,3 hPa 0,0 l/m 0,0 km/h (0 Bft) W-SW 247 0 min 0,0 UV-I 1,9 C 5,2 C 0,0 km/h (0 Bft)
04.01.2014 09:45 4,5 C 14,4 C 4,3 C 5,3 C 5,3 C 0,8 C 84 % 85 % 21 % 1015,3 hPa 0,0 l/m 0,0 km/h (0 Bft) SW 225 0 min 0,0 UV-I 2,0 C 5,3 C 0,0 km/h (0 Bft)
04.01.2014 09:50 4,6 C 14,4 C 4,4 C 5,5 C 5,5 C 0,9 C 84 % 85 % 24 % 1015,8 hPa 0,0 l/m 0,0 km/h (0 Bft) SO 135 0 min 0,0 UV-I 2,1 C 5,5 C 0,0 km/h (0 Bft)
04.01.2014 09:55 4,7 C 14,4 C 4,5 C 5,7 C 5,7 C 1,0 C 84 % 85 % 26 % 1015,8 hPa 0,0 l/m 0,0 km/h (0 Bft) SO 135 0 min 0,0 UV-I 2,2 C 5,7 C 0,0 km/h (0 Bft)
04.01.2014 10:00 4,6 C 14,3 C 4,8 C 5,9 C 5,9 C 1,3 C 84 % 85 % 34 % 1015,8 hPa 0,0 l/m 0,0 km/h (0 Bft) O-NO 67 0 min 0,0 UV-I 2,1 C 5,9 C 4,5 km/h (1 Bft)
04.01.2014 10:05 4,8 C 14,3 C 4,9 C 6,3 C 6,3 C 1,5 C 84 % 85 % 39 % 1015,8 hPa 0,0 l/m 0,0 km/h (0 Bft) O-NO 67 0 min 0,0 UV-I 2,3 C 6,3 C 0,0 km/h (0 Bft)
04.01.2014 10:10 5,0 C 14,3 C 5,2 C 6,7 C 6,7 C 1,7 C 84 % 85 % 45 % 1015,3 hPa 0,0 l/m 0,0 km/h (0 Bft) O-NO 67 0 min 0,0 UV-I 2,5 C 6,7 C 0,0 km/h (0 Bft)
04.01.2014 10:15 5,3 C 14,2 C 5,2 C 7,0 C 7,0 C 1,7 C 84 % 85 % 45 % 1015,3 hPa 0,0 l/m 0,0 km/h (0 Bft) N-NO 22 0 min 0,0 UV-I 2,8 C 7,0 C 0,0 km/h (0 Bft)
04.01.2014 10:20 5,7 C 14,2 C 5,3 C 7,0 C 7,0 C 1,3 C 83 % 84 % 34 % 1015,3 hPa 0,0 l/m 0,0 km/h (0 Bft) W 270 0 min 0,0 UV-I 3,0 C 7,0 C 0,0 km/h (0 Bft)
04.01.2014 10:25 5,9 C 14,2 C 5,2 C 6,9 C 6,9 C 1,0 C 82 % 84 % 26 % 1015,3 hPa 0,0 l/m 0,0 km/h (0 Bft) W 270 0 min 0,0 UV-I 3,1 C 6,9 C 0,0 km/h (0 Bft)
04.01.2014 10:30 6,0 C 14,2 C 5,2 C 6,8 C 6,8 C 0,8 C 81 % 84 % 21 % 1015,2 hPa 0,0 l/m 0,0 km/h (0 Bft) W 270 0 min 0,0 UV-I 3,0 C 6,8 C 0,0 km/h (0 Bft)
04.01.2014 10:35 6,1 C 14,2 C 5,3 C 6,8 C 6,8 C 0,7 C 80 % 84 % 18 % 1015,2 hPa 0,0 l/m 0,0 km/h (0 Bft) W-NW 292 0 min 0,0 UV-I 2,9 C 6,8 C 0,0 km/h (0 Bft)
04.01.2014 10:40 6,3 C 14,2 C 5,3 C 6,7 C 6,7 C 0,4 C 80 % 84 % 11 % 1015,2 hPa 0,0 l/m 0,0 km/h (0 Bft) W-SW 247 0 min 0,0 UV-I 3,1 C 6,7 C 0,0 km/h (0 Bft)
04.01.2014 10:45 6,3 C 14,2 C 5,5 C 6,6 C 6,6 C 0,3 C 79 % 84 % 8 % 1015,2 hPa 0,0 l/m 0,3 km/h (0 Bft) W-SW 247 0 min 0,0 UV-I 2,9 C 6,6 C 1,8 km/h (1 Bft)
04.01.2014 10:50 6,3 C 14,2 C 5,4 C 6,5 C 6,5 C 0,2 C 79 % 84 % 5 % 1015,5 hPa 0,0 l/m 0,3 km/h (0 Bft) W-SW 247 0 min 0,0 UV-I 2,9 C 6,5 C 1,9 km/h (1 Bft)
04.01.2014 10:55 6,3 C 14,2 C 5,5 C 6,6 C 6,6 C 0,3 C 79 % 83 % 8 % 1015,5 hPa 0,0 l/m 0,2 km/h (0 Bft) SW 225 0 min 0,0 UV-I 2,9 C 6,6 C 0,0 km/h (0 Bft)
04.01.2014 11:00 6,3 C 14,2 C 5,6 C 6,6 C 6,6 C 0,3 C 78 % 83 % 8 % 1015,5 hPa 0,0 l/m 0,2 km/h (0 Bft) W 270 0 min 0,0 UV-I 2,8 C 6,6 C 0,0 km/h (0 Bft)
04.01.2014 11:05 6,4 C 14,2 C 5,7 C 6,7 C 6,7 C 0,3 C 78 % 83 % 8 % 1015,5 hPa 0,0 l/m 0,2 km/h (0 Bft) NW 315 0 min 0,0 UV-I 2,8 C 6,7 C 1,9 km/h (1 Bft)
04.01.2014 11:10 6,4 C 14,2 C 5,7 C 6,7 C 6,7 C 0,3 C 78 % 83 % 8 % 1014,6 hPa 0,0 l/m 0,3 km/h (0 Bft) W-NW 292 0 min 0,0 UV-I 2,8 C 6,7 C 0,0 km/h (0 Bft)
04.01.2014 11:15 6,4 C 14,2 C 5,9 C 6,8 C 6,8 C 0,4 C 78 % 83 % 11 % 1014,6 hPa 0,0 l/m 0,5 km/h (0 Bft) NW 315 0 min 0,0 UV-I 2,8 C 6,8 C 0,0 km/h (0 Bft)
04.01.2014 11:20 6,4 C 14,2 C 5,9 C 6,9 C 6,9 C 0,5 C 78 % 82 % 13 % 1014,6 hPa 0,0 l/m 0,3 km/h (0 Bft) NW 315 0 min 0,0 UV-I 2,8 C 6,9 C 0,0 km/h (0 Bft)
04.01.2014 11:25 6,5 C 14,2 C 5,9 C 7,0 C 7,0 C 0,5 C 78 % 82 % 13 % 1014,6 hPa 0,0 l/m 0,5 km/h (0 Bft) N-NW 337 0 min 0,0 UV-I 2,9 C 7,0 C 1,9 km/h (1 Bft)
04.01.2014 11:30 6,5 C 14,2 C 5,9 C 7,0 C 7,0 C 0,5 C 77 % 82 % 13 % 1014,2 hPa 0,0 l/m 0,3 km/h (0 Bft) N-NW 337 0 min 0,0 UV-I 2,8 C 7,0 C 2,1 km/h (1 Bft)
04.01.2014 11:35 6,7 C 14,2 C 6,1 C 7,1 C 7,1 C 0,4 C 77 % 82 % 11 % 1014,2 hPa 0,0 l/m 0,3 km/h (0 Bft) N 360 0 min 0,0 UV-I 3,0 C 7,1 C 0,0 km/h (0 Bft)
04.01.2014 11:40 6,6 C 14,2 C 6,0 C 7,2 C 7,2 C 0,6 C 77 % 82 % 16 % 1014,2 hPa 0,0 l/m 0,2 km/h (0 Bft) N 360 0 min 0,0 UV-I 2,9 C 7,2 C 0,0 km/h (0 Bft)
04.01.2014 11:45 6,7 C 14,2 C 6,1 C 7,2 C 7,2 C 0,5 C 76 % 82 % 13 % 1014,2 hPa 0,0 l/m 0,0 km/h (0 Bft) N 360 0 min 0,0 UV-I 2,8 C 7,2 C 0,0 km/h (0 Bft)
04.01.2014 11:50 6,8 C 14,2 C 6,1 C 7,4 C 7,4 C 0,6 C 77 % 82 % 16 % 1013,6 hPa 0,0 l/m 0,0 km/h (0 Bft) N 360 0 min 0,0 UV-I 3,1 C 7,4 C 0,0 km/h (0 Bft)
04.01.2014 11:55 6,8 C 14,2 C 6,1 C 7,4 C 7,4 C 0,6 C 76 % 82 % 16 % 1013,6 hPa 0,0 l/m 0,0 km/h (0 Bft) N 360 0 min 0,0 UV-I 2,9 C 7,4 C 0,0 km/h (0 Bft)
04.01.2014 12:00 6,8 C 14,2 C 6,1 C 7,5 C 7,5 C 0,7 C 75 % 81 % 18 % 1013,6 hPa 0,0 l/m 0,0 km/h (0 Bft) N-NW 337 0 min 0,0 UV-I 2,7 C 7,5 C 0,0 km/h (0 Bft)
04.01.2014 12:05 6,9 C 14,2 C 6,3 C 7,5 C 7,5 C 0,6 C 75 % 81 % 16 % 1013,6 hPa 0,0 l/m 0,0 km/h (0 Bft) N-NO 22 0 min 0,0 UV-I 2,8 C 7,5 C 0,0 km/h (0 Bft)
04.01.2014 12:10 7,0 C 14,2 C 6,3 C 7,5 C 7,5 C 0,5 C 75 % 81 % 13 % 1012,2 hPa 0,0 l/m 0,0 km/h (0 Bft) N-NW 337 0 min 0,0 UV-I 2,9 C 7,5 C 0,0 km/h (0 Bft)
04.01.2014 12:15 7,1 C 14,2 C 6,3 C 7,5 C 7,5 C 0,4 C 74 % 80 % 11 % 1012,2 hPa 0,0 l/m 0,2 km/h (0 Bft) N 360 0 min 0,0 UV-I 2,8 C 7,5 C 1,8 km/h (1 Bft)
04.01.2014 12:20 7,1 C 14,2 C 6,5 C 7,5 C 7,5 C 0,4 C 73 % 79 % 11 % 1012,2 hPa 0,0 l/m 1,0 km/h (0 Bft) N-NW 337 0 min 0,0 UV-I 2,6 C 7,5 C 0,0 km/h (0 Bft)
04.01.2014 12:25 7,0 C 14,2 C 6,4 C 7,5 C 7,5 C 0,5 C 73 % 79 % 13 % 1012,2 hPa 0,0 l/m 1,0 km/h (0 Bft) N 360 0 min 0,0 UV-I 2,5 C 7,5 C 1,6 km/h (1 Bft)
04.01.2014 12:30 7,1 C 14,2 C 6,4 C 7,5 C 7,5 C 0,4 C 73 % 79 % 11 % 1011,8 hPa 0,0 l/m 0,3 km/h (0 Bft) N-NW 337 0 min 0,0 UV-I 2,6 C 7,5 C 0,0 km/h (0 Bft)
04.01.2014 12:35 7,1 C 14,2 C 6,4 C 7,5 C 7,5 C 0,4 C 73 % 79 % 11 % 1011,8 hPa 0,0 l/m 0,5 km/h (0 Bft) NW 315 0 min 0,0 UV-I 2,6 C 7,5 C 1,8 km/h (1 Bft)
04.01.2014 12:41 7,2 C 14,2 C 6,4 C 7,5 C 7,5 C 0,3 C 73 % 79 % 8 % 1011,8 hPa 0,0 l/m 0,5 km/h (0 Bft) N 0 0 min 0,0 UV-I 2,7 C 7,5 C 0,0 km/h (0 Bft)
04.01.2014 13:00 7,5 C 14,2 C 6,7 C 7,9 C 7,9 C 0,4 C 72 % 79 % 11 % 1011,8 hPa 0,0 l/m 2,6 km/h (1 Bft) O-NO 67 0 min 0,0 UV-I 2,8 C 7,9 C 4,0 km/h (1 Bft)
04.01.2014 13:05 7,6 C 14,2 C 6,8 C 8,0 C 8,0 C 0,4 C 71 % 79 % 11 % 1011,8 hPa 0,0 l/m 2,9 km/h (1 Bft) O-NO 67 0 min 0,0 UV-I 2,7 C 8,0 C 4,5 km/h (1 Bft)
04.01.2014 13:10 7,7 C 14,2 C 7,0 C 8,2 C 8,2 C 0,5 C 71 % 78 % 13 % 1011,5 hPa 0,0 l/m 3,2 km/h (1 Bft) NO 45 0 min 0,0 UV-I 2,8 C 8,2 C 2,7 km/h (1 Bft)
04.01.2014 13:15 7,7 C 14,1 C 7,1 C 8,3 C 8,3 C 0,6 C 72 % 78 % 16 % 1011,5 hPa 0,0 l/m 3,1 km/h (1 Bft) NO 45 0 min 0,0 UV-I 3,0 C 8,3 C 0,0 km/h (0 Bft)
04.01.2014 13:20 7,8 C 14,1 C 7,2 C 8,5 C 8,5 C 0,7 C 71 % 77 % 18 % 1011,5 hPa 0,0 l/m 2,7 km/h (1 Bft) O-NO 67 0 min 0,0 UV-I 2,9 C 8,5 C 4,8 km/h (1 Bft)
04.01.2014 13:25 7,9 C 14,1 C 7,4 C 8,6 C 8,6 C 0,7 C 70 % 76 % 18 % 1011,5 hPa 0,0 l/m 2,6 km/h (1 Bft) NO 45 0 min 0,0 UV-I 2,8 C 8,6 C 2,3 km/h (1 Bft)
04.01.2014 13:30 8,1 C 14,1 C 7,5 C 9,0 C 9,0 C 0,9 C 68 % 76 % 24 % 1010,6 hPa 0,0 l/m 2,7 km/h (1 Bft) O-SO 112 0 min 0,0 UV-I 2,6 C 9,0 C 2,1 km/h (1 Bft)
04.01.2014 13:35 8,3 C 14,1 C 7,6 C 9,3 C 9,3 C 1,0 C 69 % 76 % 26 % 1010,6 hPa 0,0 l/m 1,9 km/h (1 Bft) N-NO 22 0 min 0,0 UV-I 3,0 C 9,3 C 1,8 km/h (1 Bft)
04.01.2014 13:40 8,4 C 14,1 C 7,7 C 9,7 C 9,7 C 1,3 C 69 % 77 % 34 % 1010,6 hPa 0,0 l/m 0,5 km/h (0 Bft) NW 315 0 min 0,0 UV-I 3,0 C 9,7 C 0,0 km/h (0 Bft)
04.01.2014 13:45 8,5 C 14,1 C 7,8 C 10,0 C 10,0 C 1,5 C 69 % 76 % 39 % 1010,6 hPa 0,0 l/m 0,8 km/h (0 Bft) N-NW 337 0 min 0,0 UV-I 3,1 C 10,0 C 1,6 km/h (1 Bft)
04.01.2014 13:50 8,6 C 14,1 C 8,1 C 10,3 C 10,3 C 1,7 C 68 % 76 % 45 % 1010,6 hPa 0,0 l/m 1,0 km/h (0 Bft) O-NO 67 0 min 0,0 UV-I 3,0 C 10,3 C 0,0 km/h (0 Bft)
04.01.2014 13:55 8,9 C 14,1 C 8,3 C 10,5 C 10,5 C 1,6 C 68 % 75 % 42 % 1010,6 hPa 0,0 l/m 0,8 km/h (0 Bft) O-NO 67 0 min 0,0 UV-I 3,3 C 10,5 C 2,1 km/h (1 Bft)
04.01.2014 14:00 8,9 C 14,1 C 8,4 C 10,7 C 10,7 C 1,8 C 66 % 74 % 47 % 1010,6 hPa 0,0 l/m 1,3 km/h (1 Bft) O-NO 67 0 min 0,0 UV-I 2,9 C 10,7 C 4,2 km/h (1 Bft)
04.01.2014 14:05 9,1 C 14,1 C 8,5 C 10,8 C 10,8 C 1,7 C 64 % 73 % 45 % 1010,6 hPa 0,0 l/m 3,2 km/h (1 Bft) O-NO 67 0 min 0,0 UV-I 2,7 C 10,8 C 6,1 km/h (2 Bft)
04.01.2014 14:10 9,2 C 14,1 C 8,6 C 10,2 C 10,2 C 1,0 C 62 % 71 % 26 % 1010,2 hPa 0,0 l/m 5,3 km/h (1 Bft) O 90 0 min 0,0 UV-I 2,3 C 10,2 C 5,5 km/h (1 Bft)
04.01.2014 14:15 9,3 C 14,1 C 8,6 C 10,2 C 10,2 C 0,9 C 62 % 71 % 24 % 1010,2 hPa 0,0 l/m 5,3 km/h (1 Bft) O 90 0 min 0,0 UV-I 2,4 C 10,2 C 4,7 km/h (1 Bft)
04.01.2014 14:20 9,3 C 14,2 C 8,7 C 10,4 C 10,4 C 1,1 C 62 % 71 % 29 % 1010,2 hPa 0,0 l/m 5,1 km/h (1 Bft) NO 45 0 min 0,0 UV-I 2,4 C 10,4 C 6,1 km/h (2 Bft)
04.01.2014 14:25 9,4 C 14,2 C 8,7 C 10,5 C 10,5 C 1,1 C 62 % 70 % 29 % 1010,2 hPa 0,0 l/m 5,3 km/h (1 Bft) O-NO 67 0 min 0,0 UV-I 2,5 C 10,5 C 6,6 km/h (2 Bft)
04.01.2014 14:30 9,5 C 14,2 C 8,9 C 10,4 C 10,4 C 0,9 C 60 % 70 % 24 % 1009,6 hPa 0,0 l/m 6,1 km/h (2 Bft) O-NO 67 0 min 0,0 UV-I 2,1 C 10,4 C 4,8 km/h (1 Bft)
04.01.2014 14:35 9,5 C 14,2 C 8,7 C 10,3 C 10,3 C 0,8 C 60 % 70 % 21 % 1009,6 hPa 0,0 l/m 6,4 km/h (2 Bft) O-NO 67 0 min 0,0 UV-I 2,1 C 10,3 C 6,0 km/h (2 Bft)
04.01.2014 14:40 9,5 C 14,2 C 8,7 C 10,3 C 10,3 C 0,8 C 60 % 70 % 21 % 1009,6 hPa 0,0 l/m 6,0 km/h (2 Bft) N-NO 22 0 min 0,0 UV-I 2,1 C 10,3 C 6,8 km/h (2 Bft)
04.01.2014 14:45 9,6 C 14,2 C 8,6 C 10,3 C 10,3 C 0,7 C 60 % 69 % 18 % 1009,6 hPa 0,0 l/m 5,5 km/h (1 Bft) O-NO 67 0 min 0,0 UV-I 2,2 C 10,3 C 5,5 km/h (1 Bft)
04.01.2014 14:50 9,6 C 14,2 C 8,5 C 10,6 C 10,6 C 1,0 C 60 % 69 % 26 % 1009,0 hPa 0,0 l/m 4,3 km/h (1 Bft) O-NO 67 0 min 0,0 UV-I 2,2 C 10,6 C 3,5 km/h (1 Bft)
04.01.2014 14:55 9,7 C 14,2 C 8,4 C 10,6 C 10,6 C 0,9 C 59 % 69 % 24 % 1009,0 hPa 0,0 l/m 4,2 km/h (1 Bft) O-SO 112 0 min 0,0 UV-I 2,1 C 10,6 C 5,0 km/h (1 Bft)
04.01.2014 15:00 9,7 C 14,2 C 8,5 C 10,7 C 10,7 C 1,0 C 58 % 68 % 26 % 1009,0 hPa 0,0 l/m 5,1 km/h (1 Bft) O-NO 67 0 min 0,0 UV-I 1,8 C 10,7 C 6,6 km/h (2 Bft)
04.01.2014 15:05 9,7 C 14,2 C 8,5 C 10,3 C 10,3 C 0,6 C 58 % 69 % 16 % 1009,0 hPa 0,0 l/m 5,8 km/h (2 Bft) O-NO 67 0 min 0,0 UV-I 1,8 C 10,3 C 7,6 km/h (2 Bft)
04.01.2014 15:10 9,7 C 14,2 C 8,4 C 9,9 C 9,9 C 0,2 C 57 % 68 % 5 % 1008,2 hPa 0,0 l/m 6,0 km/h (2 Bft) NO 45 0 min 0,0 UV-I 1,6 C 9,4 C 4,8 km/h (1 Bft)
04.01.2014 15:15 9,6 C 14,2 C 8,4 C 9,6 C 9,6 C 0,0 C 59 % 68 % 0 % 1008,2 hPa 0,0 l/m 5,8 km/h (2 Bft) O-NO 67 0 min 0,0 UV-I 2,0 C 9,1 C 9,8 km/h (2 Bft)
04.01.2014 15:20 9,3 C 14,2 C 8,3 C 9,1 C 8,8 C 0,0 C 61 % 69 % 0 % 1008,2 hPa 0,0 l/m 6,3 km/h (2 Bft) O-NO 67 0 min 0,0 UV-I 2,2 C 8,0 C 7,6 km/h (2 Bft)
04.01.2014 15:25 9,1 C 14,2 C 8,1 C 9,0 C 8,1 C 0,0 C 63 % 70 % 0 % 1008,2 hPa 0,0 l/m 7,7 km/h (2 Bft) O 90 0 min 0,0 UV-I 2,4 C 6,8 C 10,9 km/h (2 Bft)
04.01.2014 15:30 8,9 C 14,2 C 7,9 C 8,6 C 7,4 C 0,0 C 64 % 72 % 0 % 1007,9 hPa 0,0 l/m 8,9 km/h (2 Bft) O-NO 67 0 min 0,0 UV-I 2,5 C 5,8 C 10,6 km/h (2 Bft)
04.01.2014 15:35 8,8 C 14,2 C 7,7 C 8,4 C 7,1 C 0,0 C 65 % 72 % 0 % 1007,9 hPa 0,0 l/m 9,2 km/h (2 Bft) O-NO 67 0 min 0,0 UV-I 2,6 C 5,3 C 10,9 km/h (2 Bft)
04.01.2014 15:40 8,6 C 14,2 C 7,5 C 8,1 C 7,1 C 0,0 C 65 % 72 % 0 % 1007,9 hPa 0,0 l/m 8,0 km/h (2 Bft) O 90 0 min 0,0 UV-I 2,4 C 5,6 C 8,0 km/h (2 Bft)
04.01.2014 15:45 8,7 C 14,2 C 7,4 C 8,3 C 7,0 C 0,0 C 65 % 72 % 0 % 1007,9 hPa 0,0 l/m 7,7 km/h (2 Bft) O-NO 67 0 min 0,0 UV-I 2,5 C 5,6 C 9,5 km/h (2 Bft)
04.01.2014 15:50 8,6 C 14,2 C 7,5 C 8,1 C 7,1 C 0,0 C 65 % 72 % 0 % 1007,8 hPa 0,0 l/m 7,2 km/h (2 Bft) O-SO 112 0 min 0,0 UV-I 2,4 C 5,8 C 7,4 km/h (2 Bft)
04.01.2014 15:55 8,5 C 14,2 C 7,3 C 8,0 C 6,9 C 0,0 C 66 % 73 % 0 % 1007,8 hPa 0,0 l/m 7,6 km/h (2 Bft) O-NO 67 0 min 0,0 UV-I 2,5 C 5,5 C 7,1 km/h (2 Bft)
04.01.2014 16:00 8,4 C 14,2 C 7,2 C 7,9 C 6,9 C 0,0 C 67 % 73 % 0 % 1007,8 hPa 0,0 l/m 6,4 km/h (2 Bft) O-NO 67 0 min 0,0 UV-I 2,6 C 5,8 C 8,9 km/h (2 Bft)
04.01.2014 16:05 8,2 C 14,2 C 7,0 C 7,8 C 7,1 C 0,0 C 67 % 74 % 0 % 1007,8 hPa 0,0 l/m 5,1 km/h (1 Bft) O 90 0 min 0,0 UV-I 2,4 C 6,4 C 5,0 km/h (1 Bft)
04.01.2014 16:10 8,3 C 14,3 C 6,9 C 7,9 C 7,2 C 0,0 C 67 % 74 % 0 % 1007,4 hPa 0,0 l/m 4,5 km/h (1 Bft) O-NO 67 0 min 0,0 UV-I 2,5 C 7,2 C 4,0 km/h (1 Bft)
04.01.2014 16:15 8,1 C 14,3 C 6,7 C 7,9 C 7,4 C 0,0 C 67 % 74 % 0 % 1007,4 hPa 0,0 l/m 3,7 km/h (1 Bft) O 90 0 min 0,0 UV-I 2,3 C 7,4 C 3,5 km/h (1 Bft)
04.01.2014 16:20 7,8 C 14,3 C 6,5 C 7,6 C 7,1 C 0,0 C 68 % 75 % 0 % 1007,4 hPa 0,0 l/m 2,9 km/h (1 Bft) O-NO 67 0 min 0,0 UV-I 2,3 C 7,1 C 2,6 km/h (1 Bft)
04.01.2014 16:22 7,6 C 14,3 C 6,4 C 7,4 C 6,9 C 0,0 C 68 % 75 % 0 % 1007,4 hPa 0,0 l/m 1,9 km/h (1 Bft) N-NO 22 0 min 0,0 UV-I 2,1 C 6,9 C 0,0 km/h (0 Bft)
04.01.2014 16:27 7,5 C 14,3 C 6,1 C 7,2 C 6,5 C 0,0 C 68 % 75 % 0 % 1007,1 hPa 0,0 l/m 0,5 km/h (0 Bft) N-NO 22 0 min 0,0 UV-I 2,0 C 6,5 C 0,0 km/h (0 Bft)
04.01.2014 16:33 7,3 C 14,3 C 5,8 C 6,9 C 6,2 C 0,0 C 68 % 75 % 0 % 1007,1 hPa 0,0 l/m 0,2 km/h (0 Bft) N-NO 22 0 min 0,0 UV-I 1,8 C 6,2 C 0,0 km/h (0 Bft)
04.01.2014 16:35 7,3 C 14,3 C 5,8 C 6,9 C 6,2 C 0,0 C 68 % 75 % 0 % 1007,1 hPa 0,0 l/m 0,2 km/h (0 Bft) N-NO 22 0 min 0,0 UV-I 1,8 C 6,2 C 0,0 km/h (0 Bft)
04.01.2014 16:40 7,1 C 14,3 C 5,6 C 6,7 C 6,0 C 0,0 C 69 % 76 % 0 % 1007,1 hPa 0,0 l/m 0,2 km/h (0 Bft) N-NO 22 0 min 0,0 UV-I 1,8 C 6,0 C 0,0 km/h (0 Bft)
04.01.2014 16:45 7,1 C 14,3 C 5,6 C 6,7 C 5,9 C 0,0 C 69 % 76 % 0 % 1007,1 hPa 0,0 l/m 0,0 km/h (0 Bft) N-NO 22 0 min 0,0 UV-I 1,8 C 5,9 C 0,0 km/h (0 Bft)
04.01.2014 16:50 6,8 C 14,3 C 5,4 C 6,5 C 5,8 C 0,0 C 70 % 77 % 0 % 1006,9 hPa 0,0 l/m 0,0 km/h (0 Bft) N-NO 22 0 min 0,0 UV-I 1,7 C 5,8 C 0,0 km/h (0 Bft)
04.01.2014 16:55 6,8 C 14,3 C 5,2 C 6,4 C 5,7 C 0,0 C 70 % 77 % 0 % 1006,9 hPa 0,0 l/m 0,0 km/h (0 Bft) N-NO 22 0 min 0,0 UV-I 1,7 C 5,7 C 0,0 km/h (0 Bft)
04.01.2014 17:00 6,7 C 14,3 C 4,8 C 6,3 C 5,5 C 0,0 C 70 % 77 % 0 % 1006,9 hPa 0,0 l/m 0,0 km/h (0 Bft) N-NO 22 0 min 0,0 UV-I 1,6 C 5,5 C 0,0 km/h (0 Bft)
04.01.2014 17:05 6,5 C 14,3 C 4,8 C 6,2 C 5,5 C 0,0 C 70 % 78 % 0 % 1006,9 hPa 0,0 l/m 0,2 km/h (0 Bft) O-NO 67 0 min 0,0 UV-I 1,4 C 5,5 C 0,0 km/h (0 Bft)
04.01.2014 17:10 6,5 C 14,3 C 4,9 C 6,1 C 5,3 C 0,0 C 70 % 78 % 0 % 1006,4 hPa 0,0 l/m 0,5 km/h (0 Bft) N-NO 22 0 min 0,0 UV-I 1,4 C 5,3 C 0,0 km/h (0 Bft)
04.01.2014 17:15 6,3 C 14,3 C 4,6 C 5,9 C 5,1 C 0,0 C 70 % 78 % 0 % 1006,4 hPa 0,0 l/m 0,3 km/h (0 Bft) N-NO 22 0 min 0,0 UV-I 1,2 C 5,1 C 0,0 km/h (0 Bft)
04.01.2014 17:20 6,0 C 14,3 C 4,3 C 5,6 C 4,7 C 0,0 C 71 % 78 % 0 % 1006,4 hPa 0,0 l/m 0,2 km/h (0 Bft) O-SO 112 0 min 0,0 UV-I 1,1 C 4,7 C 0,0 km/h (0 Bft)
04.01.2014 17:25 5,9 C 14,3 C 4,3 C 5,5 C 4,7 C 0,0 C 71 % 78 % 0 % 1006,4 hPa 0,0 l/m 0,2 km/h (0 Bft) O 90 0 min 0,0 UV-I 1,1 C 4,7 C 0,0 km/h (0 Bft)
04.01.2014 17:30 5,5 C 14,4 C 3,8 C 5,1 C 4,3 C 0,0 C 72 % 79 % 0 % 1006,2 hPa 0,0 l/m 1,1 km/h (1 Bft) O-NO 67 0 min 0,0 UV-I 0,9 C 4,3 C 4,2 km/h (1 Bft)
04.01.2014 17:35 5,2 C 14,4 C 3,9 C 4,9 C 4,2 C 0,0 C 73 % 80 % 0 % 1006,2 hPa 0,0 l/m 2,6 km/h (1 Bft) O 90 0 min 0,0 UV-I 0,8 C 4,2 C 4,3 km/h (1 Bft)
04.01.2014 17:40 5,2 C 14,4 C 4,1 C 4,8 C 4,1 C 0,0 C 74 % 80 % 0 % 1006,2 hPa 0,0 l/m 4,2 km/h (1 Bft) O-NO 67 0 min 0,0 UV-I 1,0 C 4,1 C 4,8 km/h (1 Bft)
04.01.2014 17:45 5,5 C 14,4 C 4,3 C 5,1 C 4,2 C 0,0 C 74 % 80 % 0 % 1006,2 hPa 0,0 l/m 4,7 km/h (1 Bft) O-SO 112 0 min 0,0 UV-I 1,2 C 3,3 C 5,3 km/h (1 Bft)
04.01.2014 17:50 5,9 C 14,3 C 4,5 C 5,6 C 5,0 C 0,0 C 74 % 80 % 0 % 1005,6 hPa 0,0 l/m 4,2 km/h (1 Bft) O-SO 112 0 min 0,0 UV-I 1,6 C 5,0 C 5,5 km/h (1 Bft)
04.01.2014 17:55 6,0 C 14,3 C 4,9 C 5,7 C 5,2 C 0,0 C 73 % 80 % 0 % 1005,6 hPa 0,0 l/m 4,2 km/h (1 Bft) O-SO 112 0 min 0,0 UV-I 1,5 C 5,2 C 3,1 km/h (1 Bft)
04.01.2014 18:00 6,0 C 14,3 C 4,9 C 6,0 C 5,9 C 0,0 C 73 % 80 % 0 % 1005,6 hPa 0,0 l/m 3,2 km/h (1 Bft) O 90 0 min 0,0 UV-I 1,5 C 5,9 C 0,0 km/h (0 Bft)
04.01.2014 18:05 6,0 C 14,3 C 5,1 C 5,9 C 5,8 C 0,0 C 73 % 80 % 0 % 1005,6 hPa 0,0 l/m 2,1 km/h (1 Bft) O-SO 112 0 min 0,0 UV-I 1,5 C 5,8 C 2,9 km/h (1 Bft)
04.01.2014 18:10 6,0 C 14,3 C 5,1 C 5,9 C 5,8 C 0,0 C 74 % 80 % 0 % 1005,2 hPa 0,0 l/m 1,6 km/h (1 Bft) O-NO 67 0 min 0,0 UV-I 1,7 C 5,8 C 4,2 km/h (1 Bft)
04.01.2014 18:15 6,0 C 14,3 C 5,3 C 6,0 C 5,9 C 0,0 C 74 % 80 % 0 % 1005,2 hPa 0,0 l/m 2,1 km/h (1 Bft) O 90 0 min 0,0 UV-I 1,7 C 5,9 C 4,8 km/h (1 Bft)
04.01.2014 18:20 6,1 C 14,3 C 5,5 C 6,1 C 6,1 C 0,0 C 74 % 80 % 0 % 1005,2 hPa 0,0 l/m 3,5 km/h (1 Bft) O 90 0 min 0,0 UV-I 1,8 C 6,1 C 4,5 km/h (1 Bft)
04.01.2014 18:25 6,1 C 14,3 C 5,5 C 6,0 C 5,9 C 0,0 C 75 % 80 % 0 % 1005,2 hPa 0,0 l/m 3,9 km/h (1 Bft) O 90 0 min 0,0 UV-I 2,0 C 5,9 C 4,5 km/h (1 Bft)
04.01.2014 18:30 6,1 C 14,3 C 5,5 C 6,2 C 6,2 C 0,1 C 76 % 80 % 0 % 1004,4 hPa 0,0 l/m 3,4 km/h (1 Bft) O-SO 112 0 min 0,0 UV-I 2,2 C 6,2 C 3,2 km/h (1 Bft)
04.01.2014 18:35 6,3 C 14,3 C 5,5 C 6,3 C 6,2 C 0,0 C 76 % 80 % 0 % 1004,4 hPa 0,0 l/m 3,2 km/h (1 Bft) O 90 0 min 0,0 UV-I 2,4 C 6,2 C 3,4 km/h (1 Bft)
04.01.2014 18:41 6,3 C 14,3 C 5,6 C 6,3 C 6,3 C 0,0 C 77 % 81 % 0 % 1004,4 hPa 0,0 l/m 3,4 km/h (1 Bft) N 0 0 min 0,0 UV-I 2,6 C 6,3 C 7,7 km/h (2 Bft)
04.01.2014 19:00 6,7 C 14,3 C 6,1 C 6,8 C 6,8 C 0,1 C 77 % 81 % 0 % 1004,1 hPa 0,0 l/m 2,7 km/h (1 Bft) O-NO 67 0 min 0,0 UV-I 3,0 C 6,8 C 0,0 km/h (0 Bft)
04.01.2014 19:05 6,7 C 14,3 C 6,0 C 6,8 C 6,8 C 0,1 C 77 % 81 % 0 % 1004,1 hPa 0,0 l/m 1,8 km/h (1 Bft) O 90 0 min 0,0 UV-I 3,0 C 6,8 C 3,7 km/h (1 Bft)
04.01.2014 19:10 6,8 C 14,3 C 6,2 C 6,8 C 6,7 C 0,0 C 77 % 81 % 0 % 1003,8 hPa 0,0 l/m 3,9 km/h (1 Bft) O-SO 112 0 min 0,0 UV-I 3,1 C 6,7 C 6,8 km/h (2 Bft)
04.01.2014 19:15 6,9 C 14,3 C 6,3 C 6,7 C 6,3 C 0,0 C 77 % 81 % 0 % 1003,8 hPa 0,0 l/m 5,1 km/h (1 Bft) NO 45 0 min 0,0 UV-I 3,2 C 5,5 C 1,9 km/h (1 Bft)
04.01.2014 19:20 6,9 C 14,3 C 6,3 C 7,1 C 7,1 C 0,2 C 77 % 81 % 0 % 1003,8 hPa 0,0 l/m 3,5 km/h (1 Bft) NO 45 0 min 0,0 UV-I 3,2 C 7,1 C 3,7 km/h (1 Bft)
04.01.2014 19:25 6,9 C 14,3 C 6,2 C 7,0 C 7,0 C 0,1 C 77 % 81 % 0 % 1003,8 hPa 0,0 l/m 2,4 km/h (1 Bft) O-NO 67 0 min 0,0 UV-I 3,2 C 7,0 C 2,3 km/h (1 Bft)
04.01.2014 19:30 6,8 C 14,3 C 6,1 C 7,0 C 7,0 C 0,2 C 77 % 81 % 0 % 1003,8 hPa 0,0 l/m 0,6 km/h (0 Bft) O 90 0 min 0,0 UV-I 3,1 C 7,0 C 2,1 km/h (1 Bft)
04.01.2014 19:35 6,9 C 14,3 C 6,2 C 7,0 C 7,0 C 0,1 C 77 % 81 % 0 % 1003,8 hPa 0,0 l/m 1,6 km/h (1 Bft) O-SO 112 0 min 0,0 UV-I 3,2 C 7,0 C 4,8 km/h (1 Bft)
04.01.2014 19:40 7,0 C 14,3 C 6,3 C 7,0 C 7,0 C 0,0 C 77 % 81 % 0 % 1003,8 hPa 0,0 l/m 2,1 km/h (1 Bft) O-NO 67 0 min 0,0 UV-I 3,2 C 7,0 C 0,0 km/h (0 Bft)
04.01.2014 19:45 6,9 C 14,3 C 6,1 C 7,0 C 7,0 C 0,1 C 77 % 81 % 0 % 1003,8 hPa 0,0 l/m 1,3 km/h (1 Bft) W-NW 292 0 min 0,0 UV-I 3,2 C 7,0 C 0,0 km/h (0 Bft)
04.01.2014 19:50 6,9 C 14,3 C 6,1 C 6,9 C 6,9 C 0,0 C 77 % 81 % 0 % 1004,1 hPa 0,0 l/m 1,0 km/h (0 Bft) O-NO 67 0 min 0,0 UV-I 3,2 C 6,9 C 3,4 km/h (1 Bft)
04.01.2014 19:55 6,9 C 14,3 C 6,1 C 6,9 C 6,9 C 0,0 C 77 % 81 % 0 % 1004,1 hPa 0,0 l/m 2,1 km/h (1 Bft) O-NO 67 0 min 0,0 UV-I 3,2 C 6,9 C 3,9 km/h (1 Bft)
04.01.2014 20:00 6,9 C 14,3 C 6,3 C 6,9 C 6,9 C 0,0 C 77 % 81 % 0 % 1004,1 hPa 0,0 l/m 3,2 km/h (1 Bft) O-SO 112 0 min 0,0 UV-I 3,2 C 6,9 C 3,1 km/h (1 Bft)
04.01.2014 20:05 6,9 C 14,3 C 6,2 C 6,9 C 6,9 C 0,0 C 77 % 81 % 0 % 1004,1 hPa 0,0 l/m 3,1 km/h (1 Bft) O-NO 67 0 min 0,0 UV-I 3,2 C 6,9 C 4,5 km/h (1 Bft)
04.01.2014 20:10 6,8 C 14,3 C 6,1 C 6,8 C 6,7 C 0,0 C 77 % 81 % 0 % 1003,5 hPa 0,0 l/m 2,6 km/h (1 Bft) O 90 0 min 0,0 UV-I 3,1 C 6,7 C 2,1 km/h (1 Bft)
04.01.2014 20:15 6,7 C 14,3 C 6,1 C 6,7 C 6,7 C 0,0 C 77 % 81 % 0 % 1003,5 hPa 0,0 l/m 2,4 km/h (1 Bft) O-NO 67 0 min 0,0 UV-I 3,0 C 6,7 C 3,4 km/h (1 Bft)
04.01.2014 20:20 6,7 C 14,3 C 6,0 C 6,7 C 6,6 C 0,0 C 78 % 81 % 0 % 1003,5 hPa 0,0 l/m 2,6 km/h (1 Bft) O 90 0 min 0,0 UV-I 3,1 C 6,6 C 3,4 km/h (1 Bft)
04.01.2014 20:25 6,7 C 14,3 C 5,9 C 6,6 C 6,5 C 0,0 C 78 % 81 % 0 % 1003,5 hPa 0,0 l/m 2,9 km/h (1 Bft) O 90 0 min 0,0 UV-I 3,1 C 6,5 C 1,8 km/h (1 Bft)
04.01.2014 20:30 6,6 C 14,3 C 5,8 C 6,6 C 6,5 C 0,0 C 78 % 81 % 0 % 1003,6 hPa 0,0 l/m 1,3 km/h (1 Bft) NO 45 0 min 0,0 UV-I 3,0 C 6,5 C 0,0 km/h (0 Bft)
04.01.2014 20:35 6,6 C 14,3 C 5,7 C 6,5 C 6,3 C 0,0 C 78 % 81 % 0 % 1003,6 hPa 0,0 l/m 0,3 km/h (0 Bft) SO 135 0 min 0,0 UV-I 3,0 C 6,3 C 0,0 km/h (0 Bft)
04.01.2014 20:40 6,6 C 14,3 C 5,7 C 6,5 C 6,3 C 0,0 C 78 % 81 % 0 % 1003,6 hPa 0,0 l/m 0,3 km/h (0 Bft) O-NO 67 0 min 0,0 UV-I 3,0 C 6,3 C 1,8 km/h (1 Bft)
04.01.2014 20:45 6,7 C 14,3 C 5,9 C 6,6 C 6,4 C 0,0 C 78 % 81 % 0 % 1003,6 hPa 0,0 l/m 0,8 km/h (0 Bft) O-NO 67 0 min 0,0 UV-I 3,1 C 6,4 C 2,3 km/h (1 Bft)
04.01.2014 20:50 6,6 C 14,3 C 6,0 C 6,6 C 6,5 C 0,0 C 78 % 82 % 0 % 1003,4 hPa 0,0 l/m 1,8 km/h (1 Bft) O-SO 112 0 min 0,0 UV-I 3,0 C 6,5 C 2,3 km/h (1 Bft)
04.01.2014 20:55 6,7 C 14,3 C 6,0 C 6,7 C 6,6 C 0,0 C 77 % 82 % 0 % 1003,4 hPa 0,0 l/m 1,9 km/h (1 Bft) NO 45 0 min 0,0 UV-I 3,0 C 6,6 C 1,6 km/h (1 Bft)
04.01.2014 21:00 6,8 C 14,3 C 6,0 C 6,8 C 6,7 C 0,0 C 77 % 81 % 0 % 1003,4 hPa 0,0 l/m 1,9 km/h (1 Bft) SO 135 0 min 0,0 UV-I 3,1 C 6,7 C 1,9 km/h (1 Bft)
04.01.2014 21:05 6,8 C 14,3 C 6,1 C 6,8 C 6,7 C 0,0 C 77 % 81 % 0 % 1003,4 hPa 0,0 l/m 1,4 km/h (1 Bft) O-SO 112 0 min 0,0 UV-I 3,1 C 6,7 C 1,8 km/h (1 Bft)
04.01.2014 21:10 6,8 C 14,3 C 6,2 C 6,8 C 6,7 C 0,0 C 77 % 81 % 0 % 1003,1 hPa 0,0 l/m 0,5 km/h (0 Bft) O 90 0 min 0,0 UV-I 3,1 C 6,7 C 0,0 km/h (0 Bft)
04.01.2014 21:15 6,8 C 14,3 C 6,2 C 6,8 C 6,7 C 0,0 C 77 % 81 % 0 % 1003,1 hPa 0,0 l/m 0,3 km/h (0 Bft) SO 135 0 min 0,0 UV-I 3,1 C 6,7 C 1,6 km/h (1 Bft)
04.01.2014 21:20 6,8 C 14,3 C 6,2 C 6,8 C 6,8 C 0,0 C 77 % 80 % 0 % 1003,1 hPa 0,0 l/m 0,2 km/h (0 Bft) O-SO 112 0 min 0,0 UV-I 3,1 C 6,8 C 0,0 km/h (0 Bft)
04.01.2014 21:25 6,8 C 14,3 C 6,2 C 6,8 C 6,8 C 0,0 C 77 % 80 % 0 % 1003,1 hPa 0,0 l/m 0,2 km/h (0 Bft) O-SO 112 0 min 0,0 UV-I 3,1 C 6,8 C 0,0 km/h (0 Bft)
04.01.2014 21:30 6,8 C 14,3 C 6,2 C 6,8 C 6,7 C 0,0 C 76 % 80 % 0 % 1003,4 hPa 0,0 l/m 0,0 km/h (0 Bft) O-SO 112 0 min 0,0 UV-I 2,9 C 6,7 C 0,0 km/h (0 Bft)
04.01.2014 21:35 6,9 C 14,3 C 6,3 C 6,9 C 6,8 C 0,0 C 76 % 80 % 0 % 1003,4 hPa 0,0 l/m 0,0 km/h (0 Bft) O-NO 67 0 min 0,0 UV-I 3,0 C 6,8 C 0,0 km/h (0 Bft)
04.01.2014 21:40 6,9 C 14,4 C 6,1 C 6,8 C 6,6 C 0,0 C 77 % 81 % 0 % 1003,4 hPa 0,0 l/m 0,6 km/h (0 Bft) O-NO 67 0 min 0,0 UV-I 3,2 C 6,6 C 0,0 km/h (0 Bft)
04.01.2014 21:45 6,9 C 14,4 C 6,1 C 6,8 C 6,5 C 0,0 C 77 % 81 % 0 % 1003,4 hPa 0,0 l/m 0,8 km/h (0 Bft) O-NO 67 0 min 0,0 UV-I 3,2 C 6,5 C 0,0 km/h (0 Bft)
04.01.2014 21:50 6,8 C 14,5 C 6,1 C 6,6 C 6,3 C 0,0 C 77 % 81 % 0 % 1003,1 hPa 0,0 l/m 0,2 km/h (0 Bft) O-SO 112 0 min 0,0 UV-I 3,1 C 6,3 C 0,0 km/h (0 Bft)
04.01.2014 21:55 6,7 C 14,6 C 5,9 C 6,5 C 6,1 C 0,0 C 77 % 81 % 0 % 1003,1 hPa 0,0 l/m 0,0 km/h (0 Bft) O-SO 112 0 min 0,0 UV-I 3,0 C 6,1 C 0,0 km/h (0 Bft)
04.01.2014 22:00 6,7 C 14,7 C 6,0 C 6,4 C 5,9 C 0,0 C 78 % 82 % 0 % 1003,1 hPa 0,0 l/m 0,2 km/h (0 Bft) O 90 0 min 0,0 UV-I 3,1 C 5,9 C 0,0 km/h (0 Bft)
04.01.2014 22:05 6,7 C 14,8 C 5,9 C 6,4 C 5,7 C 0,0 C 78 % 82 % 0 % 1003,1 hPa 0,0 l/m 0,2 km/h (0 Bft) N-NO 22 0 min 0,0 UV-I 3,1 C 5,7 C 0,0 km/h (0 Bft)
04.01.2014 22:10 6,6 C 14,8 C 5,8 C 6,2 C 5,5 C 0,0 C 79 % 83 % 0 % 1003,1 hPa 0,0 l/m 0,0 km/h (0 Bft) W 270 0 min 0,0 UV-I 3,2 C 5,5 C 0,0 km/h (0 Bft)
04.01.2014 22:15 6,6 C 14,8 C 5,7 C 6,2 C 5,5 C 0,0 C 79 % 83 % 0 % 1003,1 hPa 0,0 l/m 0,0 km/h (0 Bft) W 270 0 min 0,0 UV-I 3,2 C 5,5 C 0,0 km/h (0 Bft)
04.01.2014 22:20 6,5 C 14,8 C 5,5 C 6,1 C 5,3 C 0,0 C 80 % 83 % 0 % 1003,1 hPa 0,0 l/m 0,2 km/h (0 Bft) W 270 0 min 0,0 UV-I 3,3 C 5,3 C 0,0 km/h (0 Bft)
04.01.2014 22:25 6,5 C 14,8 C 5,5 C 6,1 C 5,2 C 0,0 C 80 % 84 % 0 % 1003,1 hPa 0,0 l/m 0,2 km/h (0 Bft) SW 225 0 min 0,0 UV-I 3,3 C 5,2 C 0,0 km/h (0 Bft)
04.01.2014 22:30 6,3 C 14,8 C 5,2 C 5,9 C 5,2 C 0,0 C 80 % 84 % 0 % 1002,8 hPa 0,0 l/m 0,0 km/h (0 Bft) NW 315 0 min 0,0 UV-I 3,1 C 5,2 C 0,0 km/h (0 Bft)
04.01.2014 22:35 6,2 C 14,8 C 5,3 C 5,8 C 5,1 C 0,0 C 81 % 84 % 0 % 1002,8 hPa 0,0 l/m 0,0 km/h (0 Bft) NW 315 0 min 0,0 UV-I 3,2 C 5,1 C 0,0 km/h (0 Bft)
04.01.2014 22:40 6,2 C 14,8 C 5,1 C 5,8 C 5,1 C 0,0 C 81 % 84 % 0 % 1002,8 hPa 0,0 l/m 0,0 km/h (0 Bft) W-SW 247 0 min 0,0 UV-I 3,2 C 5,1 C 0,0 km/h (0 Bft)
04.01.2014 22:45 6,0 C 14,8 C 5,1 C 5,7 C 5,1 C 0,0 C 82 % 84 % 0 % 1002,8 hPa 0,0 l/m 0,0 km/h (0 Bft) SW 225 0 min 0,0 UV-I 3,2 C 5,1 C 0,0 km/h (0 Bft)
04.01.2014 22:50 6,1 C 14,8 C 5,1 C 5,8 C 5,1 C 0,0 C 82 % 84 % 0 % 1003,1 hPa 0,0 l/m 0,0 km/h (0 Bft) W 270 0 min 0,0 UV-I 3,3 C 5,1 C 0,0 km/h (0 Bft)
04.01.2014 22:55 6,0 C 14,8 C 5,1 C 5,7 C 5,1 C 0,0 C 82 % 84 % 0 % 1003,1 hPa 0,0 l/m 0,2 km/h (0 Bft) SW 225 0 min 0,0 UV-I 3,2 C 5,1 C 0,0 km/h (0 Bft)
04.01.2014 23:00 5,9 C 14,8 C 5,1 C 5,6 C 5,1 C 0,0 C 82 % 85 % 0 % 1003,1 hPa 0,0 l/m 0,2 km/h (0 Bft) SO 135 0 min 0,0 UV-I 3,1 C 5,1 C 0,0 km/h (0 Bft)
04.01.2014 23:05 5,9 C 14,7 C 5,0 C 5,6 C 5,1 C 0,0 C 82 % 85 % 0 % 1003,1 hPa 0,0 l/m 0,0 km/h (0 Bft) SO 135 0 min 0,0 UV-I 3,1 C 5,1 C 0,0 km/h (0 Bft)
04.01.2014 23:10 5,9 C 14,8 C 4,9 C 5,6 C 5,1 C 0,0 C 83 % 86 % 0 % 1002,9 hPa 0,0 l/m 0,0 km/h (0 Bft) O 90 0 min 0,0 UV-I 3,2 C 5,1 C 0,0 km/h (0 Bft)
04.01.2014 23:15 5,7 C 14,8 C 4,9 C 5,5 C 5,0 C 0,0 C 83 % 86 % 0 % 1002,9 hPa 0,0 l/m 0,0 km/h (0 Bft) SW 225 0 min 0,0 UV-I 3,0 C 5,0 C 0,0 km/h (0 Bft)
04.01.2014 23:20 5,6 C 14,8 C 4,8 C 5,3 C 4,8 C 0,0 C 83 % 86 % 0 % 1002,9 hPa 0,0 l/m 0,0 km/h (0 Bft) SO 135 0 min 0,0 UV-I 2,9 C 4,8 C 0,0 km/h (0 Bft)
04.01.2014 23:25 5,6 C 14,7 C 4,6 C 5,3 C 4,7 C 0,0 C 83 % 86 % 0 % 1002,9 hPa 0,0 l/m 0,0 km/h (0 Bft) SW 225 0 min 0,0 UV-I 2,9 C 4,7 C 0,0 km/h (0 Bft)
04.01.2014 23:30 5,4 C 14,8 C 4,5 C 5,1 C 4,4 C 0,0 C 83 % 86 % 0 % 1003,1 hPa 0,0 l/m 0,0 km/h (0 Bft) W-SW 247 0 min 0,0 UV-I 2,7 C 4,4 C 0,0 km/h (0 Bft)
04.01.2014 23:35 5,3 C 14,8 C 4,4 C 5,0 C 4,4 C 0,0 C 84 % 86 % 0 % 1003,1 hPa 0,0 l/m 0,0 km/h (0 Bft) SW 225 0 min 0,0 UV-I 2,8 C 4,4 C 0,0 km/h (0 Bft)
04.01.2014 23:40 5,2 C 14,8 C 4,5 C 4,9 C 4,4 C 0,0 C 84 % 87 % 0 % 1003,1 hPa 0,0 l/m 0,0 km/h (0 Bft) SO 135 0 min 0,0 UV-I 2,7 C 4,4 C 0,0 km/h (0 Bft)
04.01.2014 23:45 5,1 C 14,8 C 4,5 C 4,9 C 4,4 C 0,0 C 84 % 87 % 0 % 1003,1 hPa 0,0 l/m 0,0 km/h (0 Bft) O-NO 67 0 min 0,0 UV-I 2,6 C 4,4 C 0,0 km/h (0 Bft)
04.01.2014 23:50 5,0 C 14,8 C 4,5 C 4,8 C 4,4 C 0,0 C 84 % 87 % 0 % 1002,8 hPa 0,0 l/m 0,0 km/h (0 Bft) O-NO 67 0 min 0,0 UV-I 2,5 C 4,4 C 0,0 km/h (0 Bft)
04.01.2014 23:55 4,9 C 14,8 C 4,5 C 4,7 C 4,4 C 0,0 C 84 % 87 % 0 % 1002,8 hPa 0,0 l/m 0,0 km/h (0 Bft) O-NO 67 0 min 0,0 UV-I 2,4 C 4,4 C 0,0 km/h (0 Bft)
_ Min-Zeit 04:30 00:00 04:25 04:20 04:20 00:00 15:10 15:00 00:00 22:30 - 03:30 - - - 00:00 17:35 02:35 03:10
Minimum _ 3,5 C 14,1 C 2,8 C 3,3 C 2,6 C 0,0 C 57 % 68 % 0 % 1002,8 hPa - 0,0 km/h (0 Bft) - - - 0,0 UV-I 0,8 C 2,4 C 0,0 km/h (0 Bft)
_ Max-Zeit 14:55 04:05 14:30 14:05 14:05 14:00 04:55 05:00 14:00 09:50 00:00 15:35 - - 00:00 00:00 01:07 14:05 02:25
Maximum _ 9,7 C 15,0 C 8,9 C 10,8 C 10,8 C 1,8 C 88 % 89 % 47 % 1015,8 hPa 0,0 l/m 9,2 km/h
O-NO (2 Bft)
- - 0 min 0,0 UV-I 5,7 C 10,8 C 13,8 km/h
W-SW (3 Bft)
Durchschnitt _ 6,8 C 14,4 C 6,0 C 6,8 C 6,4 C 0,2 C 77 % 81 % 5 % 1010,6 hPa #0,0 l/m 2,4 km/h (1 Bft) O-NO - #0 min. 0,0 UV-I 3,0 C 6,2 C 2,9 km/h (1 Bft)
2014 www.wetterstation-wechselburg.de